Steamboat Springs, CO

6:12 PM MDT on April 27, 2017 (GMT -0600)
Steamboat Springs-Adams

Weather History for KSBS - March, 2012

Change the Weather History Date:

Wednesday, March 7, 2012

  Actual Average Record
Temperature  
Mean Temperature 38 °F -  
Max Temperature 45 °F 41 °F 56 °F (1987)
Min Temperature 30 °F 14 °F -20 °F (1922)
Degree Days  
Heating Degree Days 28    
Moisture  
Dew Point 17 °F    
Average Humidity 48    
Maximum Humidity 70    
Minimum Humidity 24    
Precipitation  
Precipitation 0.00 in - - ()
Sea Level Pressure  
Sea Level Pressure 29.73 in    
Wind  
Wind Speed 7 mph (SSW)    
Max Wind Speed 13 mph    
Max Gust Speed 33 mph    
Visibility 10 miles    
Events      
Averages and records for this station are not official NWS values.
T = Trace of Precipitation, MM = Missing Value Source: NWS Daily Summary

Daily Weather History Graph

Daily Weather History Graph

Search for Another Location

Airport or City:

Trip Planner

Search our weather history database for the weather conditions in past years. The results will help you decide how hot, cold, wet, or windy it might be!

Date:

Astronomy

Mar. 07, 2012 Rise Set
Actual Time 6:31 AM MST 6:06 PM MST
Civil Twilight 6:03 AM MST 6:33 PM MST
Nautical Twilight 5:32 AM MST 7:05 PM MST
Astronomical Twilight 5:00 AM MST 7:36 PM MST
Moon 5:46 PM MST (3/7) 5:42 AM MST (3/7)
Length of Visible Light 12h 29m
Length of Day
11h 35m
Waxing Gibbous, 99% of the Moon is Illuminated
Mar 7
Waxing Gibbous
Mar 8
Full
Mar 14
Last Quarter
Mar 22
New
Mar 30
First Quarter

Hourly Weather History & Observations

Time (MST) Temp. Windchill Dew Point Humidity Pressure Visibility Wind Dir Wind Speed Gust Speed Precip Events Conditions
12:16 AM 45.5 °F 39.6 °F 10.2 °F 24% 29.55 in 7.0 mi South 12.7 mph 33.4 mph N/A   Overcast
12:36 AM 44.4 °F 39.0 °F 10.6 °F 25% 29.55 in 10.0 mi SSE 10.4 mph - N/A   Scattered Clouds
12:56 AM 43.9 °F 38.3 °F 9.5 °F 25% 29.56 in 10.0 mi SSE 10.4 mph - N/A   Clear
1:16 AM 41.5 °F 37.8 °F 11.5 °F 29% 29.57 in 10.0 mi SSE 5.8 mph - N/A   Clear
1:36 AM 42.8 °F 38.6 °F 9.1 °F 25% 29.57 in 10.0 mi SE 6.9 mph 16.1 mph N/A   Clear
1:56 AM 39.4 °F 33.2 °F 11.3 °F 32% 29.57 in 10.0 mi SE 9.2 mph - N/A   Clear
2:16 AM 41.9 °F 35.4 °F 9.5 °F 27% 29.56 in 10.0 mi SSE 11.5 mph 17.3 mph N/A   Clear
2:36 AM 42.6 °F 36.3 °F 8.6 °F 25% 29.56 in 10.0 mi SSE 11.5 mph 21.9 mph N/A   Clear
2:56 AM 41.9 °F 36.3 °F 9.9 °F 27% 29.57 in 10.0 mi South 9.2 mph 17.3 mph N/A   Clear
3:16 AM 40.1 °F 38.0 °F 9.7 °F 29% 29.57 in 10.0 mi North 3.5 mph - N/A   Clear
3:36 AM 39.4 °F 37.2 °F 9.5 °F 29% 29.58 in 10.0 mi North 3.5 mph - N/A   Clear
3:56 AM 41.2 °F 38.2 °F 8.4 °F 26% 29.59 in 10.0 mi WSW 4.6 mph - N/A   Mostly Cloudy
4:16 AM 39.2 °F 37.0 °F 10.6 °F 31% 29.59 in 10.0 mi SSW 3.5 mph - N/A   Overcast
4:36 AM 37.4 °F - 12.4 °F 36% 29.60 in 10.0 mi Calm Calm - N/A   Overcast
4:56 AM 39.2 °F - 10.4 °F 31% 29.60 in 10.0 mi Calm Calm - N/A   Mostly Cloudy
5:16 AM 38.5 °F 36.1 °F 10.6 °F 32% 29.61 in 10.0 mi ESE 3.5 mph - N/A   Mostly Cloudy
5:36 AM 36.9 °F - 13.3 °F 38% 29.62 in 10.0 mi Calm Calm - N/A   Scattered Clouds
5:56 AM 34.0 °F 29.8 °F 14.9 °F 46% 29.61 in 10.0 mi East 4.6 mph - N/A   Clear
6:16 AM 36.3 °F 33.7 °F 13.8 °F 40% 29.61 in 10.0 mi ENE 3.5 mph - N/A   Clear
6:36 AM 32.9 °F 28.5 °F 14.9 °F 48% 29.62 in 10.0 mi ESE 4.6 mph - N/A   Clear
6:56 AM 33.1 °F 30.0 °F 14.9 °F 47% 29.62 in 10.0 mi East 3.5 mph - N/A   Clear
7:16 AM 32.5 °F 25.5 °F 15.8 °F 50% 29.62 in 10.0 mi SE 8.1 mph - N/A   Clear
7:36 AM 33.1 °F - 15.6 °F 49% 29.63 in 10.0 mi Calm Calm - N/A   Clear
7:56 AM 31.6 °F - 17.4 °F 56% 29.64 in 10.0 mi Calm Calm - N/A   Clear
8:16 AM 32.5 °F - 17.2 °F 53% 29.64 in 10.0 mi Calm Calm - N/A   Clear
8:36 AM 34.2 °F - 16.5 °F 49% 29.65 in 10.0 mi Calm Calm - N/A   Clear
8:56 AM 33.6 °F 30.6 °F 17.8 °F 52% 29.66 in 10.0 mi SSW 3.5 mph - N/A   Clear
9:16 AM 32.9 °F - 18.9 °F 56% 29.68 in 10.0 mi Calm Calm - N/A   Mostly Cloudy
9:36 AM 31.5 °F 23.5 °F 21.4 °F 66% 29.70 in 10.0 mi SW 9.2 mph - N/A   Overcast
9:56 AM 32.0 °F 27.5 °F 21.2 °F 64% 29.72 in 10.0 mi SW 4.6 mph - N/A   Overcast
10:16 AM 32.2 °F 28.9 °F 21.2 °F 64% 29.74 in 10.0 mi WSW 3.5 mph - N/A   Overcast
10:36 AM 33.1 °F - 21.7 °F 63% 29.75 in 10.0 mi Calm Calm - N/A   Overcast
10:56 AM 32.4 °F 29.1 °F 21.7 °F 65% 29.76 in 10.0 mi South 3.5 mph - N/A   Overcast
11:16 AM 33.8 °F - 21.9 °F 62% 29.78 in 10.0 mi Calm Calm - N/A   Overcast
11:36 AM 34.3 °F - 21.4 °F 59% 29.79 in 10.0 mi Calm Calm - N/A   Overcast
11:56 AM 34.9 °F 32.0 °F 22.1 °F 60% 29.79 in 10.0 mi NNE 3.5 mph - N/A   Overcast
12:16 PM 39.6 °F 35.4 °F 19.8 °F 45% 29.78 in 10.0 mi West 5.8 mph - N/A   Mostly Cloudy
12:36 PM 38.7 °F 32.9 °F 20.7 °F 48% 29.78 in 10.0 mi SW 8.1 mph - N/A   Scattered Clouds
12:56 PM 39.2 °F 34.2 °F 20.5 °F 47% 29.79 in 10.0 mi SSW 6.9 mph - N/A   Clear
1:16 PM 39.7 °F 34.3 °F 21.6 °F 48% 29.80 in 10.0 mi SW 8.1 mph - N/A   Clear
1:36 PM 37.8 °F 31.3 °F 22.8 °F 55% 29.81 in 10.0 mi SW 9.2 mph - N/A   Clear
1:56 PM 39.2 °F 33.0 °F 21.9 °F 50% 29.82 in 10.0 mi SW 9.2 mph - N/A   Clear
2:16 PM 37.8 °F 31.3 °F 21.4 °F 52% 29.83 in 10.0 mi SW 9.2 mph - N/A   Clear
2:36 PM 37.8 °F 32.5 °F 21.6 °F 52% 29.84 in 10.0 mi SW 6.9 mph - N/A   Clear
2:56 PM 38.5 °F 32.1 °F 22.1 °F 52% 29.85 in 10.0 mi SW 9.2 mph - N/A   Clear
3:16 PM 38.7 °F 32.4 °F 22.6 °F 53% 29.87 in 10.0 mi SW 9.2 mph - N/A   Clear
3:56 PM 37.4 °F 30.3 °F 22.6 °F 55% 29.89 in 10.0 mi SW 10.4 mph 18.4 mph N/A   Clear
4:36 PM 36.3 °F 30.1 °F 22.8 °F 58% 29.92 in 10.0 mi SSW 8.1 mph - N/A   Scattered Clouds
4:56 PM 35.4 °F 28.4 °F 22.8 °F 60% 29.94 in 10.0 mi SSW 9.2 mph - N/A   Mostly Cloudy
5:16 PM 35.1 °F 27.9 °F 22.5 °F 60% 29.95 in 10.0 mi SW 9.2 mph - N/A   Mostly Cloudy
5:36 PM 34.0 °F 28.0 °F 22.1 °F 62% 29.97 in 10.0 mi SW 6.9 mph - N/A   Overcast
5:56 PM 32.9 °F 27.5 °F 22.1 °F 65% 29.98 in 10.0 mi SSW 5.8 mph - N/A   Overcast
6:16 PM 31.8 °F 26.2 °F 21.7 °F 66% 30.00 in 10.0 mi SW 5.8 mph - N/A   Overcast
6:36 PM 30.9 °F - 21.2 °F 67% 30.01 in 10.0 mi Calm Calm - N/A   Scattered Clouds
6:56 PM 30.2 °F - 21.6 °F 70% 30.02 in 10.0 mi Calm Calm - N/A   Clear
7:16 PM 30.6 °F - 21.2 °F 68% 30.04 in 10.0 mi Calm Calm - N/A   Clear
7:36 PM 30.0 °F - 21.2 °F 70% 30.05 in 10.0 mi Calm Calm - N/A   Clear
7:56 PM 28.0 °F 24.2 °F 21.0 °F 75% 30.06 in 10.0 mi East 3.5 mph - N/A   Scattered Clouds
8:16 PM 29.1 °F 24.1 °F 21.0 °F 72% 30.07 in 10.0 mi ESE 4.6 mph - N/A   Scattered Clouds
8:56 PM 29.3 °F 25.6 °F 21.7 °F 73% 30.10 in 10.0 mi ESE 3.5 mph - N/A   Overcast
9:16 PM 29.8 °F - 22.1 °F 73% 30.10 in 10.0 mi Calm Calm - N/A   Overcast
9:36 PM 30.6 °F - 21.2 °F 68% 30.11 in 10.0 mi Calm Calm - N/A   Overcast
9:56 PM 29.5 °F - 22.1 °F 74% 30.12 in 10.0 mi Calm Calm - N/A   Overcast
10:16 PM 29.3 °F - 22.1 °F 75% 30.13 in 10.0 mi Calm Calm - N/A   Overcast
10:36 PM 28.2 °F 23.1 °F 22.6 °F 80% 30.14 in 10.0 mi SSE 4.6 mph - N/A   Overcast
10:56 PM 28.6 °F - 21.6 °F 75% 30.15 in 10.0 mi Calm Calm - N/A   Overcast
11:16 PM 27.5 °F - 22.1 °F 80% 30.15 in 10.0 mi Calm Calm - N/A   Overcast
11:56 PM 27.1 °F - 21.7 °F 80% 30.16 in 10.0 mi Calm Calm - N/A   Overcast